User: anonymous   Login
Location: Unspecified
(0.0000°N, 0.0000°E)
Time: 00:46:30
(UTC+00:00)
Language:

OBJECT S - Orbit

View from above orbital plane
View from above orbital plane
View from above satellite
View from above satellite

Ground track
Ground track

The orbit is defined by the following mean orbital elements,

1 64892U          26145.60864588 +.00000000 +00000-0 +45103-3 0 00001
2 64892  97.4534 114.8713 0003761 257.9401 102.1419 15.32698724    08
Epoch (UTC): 25 May 2026 14:36:27
Eccentricity: 0.0003761
inclination: 97.4534°
perigee height: 465 km
apogee height: 470 km
right ascension of ascending node: 114.8713°
argument of perigee: 257.9401°
revolutions per day: 15.32698724
mean anomaly at epoch: 102.1419°

The dashed part of the orbit path shows where the satellite is in the earth's shadow,  

DLR